Location: Highridge
(54.0333°N, 114.1333°W)
Time: 15:45:10
(UTC+00:00)

UWE-3 - Visible Passes

Search period start: 08 September 2024 00:00
Search period end: 18 September 2024 00:00
Orbit: 566 x 645 km, 97.8° (Epoch: 07 September)

Date Brightness Start Highest point End Pass type
(mag) Time Alt. Az. Time Alt. Az. Time Alt. Az.
08 Sep ? 09:28:21 10° NNE 09:32:18 29° E 09:33:23 26° ESE visible
08 Sep ? 11:04:01 10° N 11:08:16 43° WNW 11:10:14 27° WSW visible
09 Sep ? 09:40:59 10° NNE 09:45:11 38° E 09:46:12 33° SE visible
09 Sep ? 11:16:55 10° N 11:20:58 34° WNW 11:23:03 23° WSW visible
10 Sep ? 09:53:39 10° NNE 09:58:01 48° E 09:59:00 41° SE visible
10 Sep ? 11:29:49 10° N 11:33:38 28° WNW 11:35:51 19° WSW visible
11 Sep ? 10:06:19 10° NNE 10:10:47 63° ESE 10:11:46 49° SSE visible
11 Sep ? 11:42:45 10° N 11:46:15 23° WNW 11:48:37 15° W visible
12 Sep ? 08:44:55 10° ENE 08:46:56 13° E 08:47:39 12° E visible
12 Sep ? 10:18:59 10° NNE 10:23:30 81° ESE 10:24:29 54° S visible
12 Sep ? 11:55:42 10° NNW 11:58:49 19° NW 12:01:20 12° W visible
13 Sep ? 08:56:57 10° NE 08:59:47 16° E 09:00:21 16° E visible
13 Sep ? 10:31:40 10° NNE 10:36:11 80° WNW 10:37:11 53° SSW visible
13 Sep ? 12:08:42 10° NNW 12:11:19 15° NW 12:13:54 10° W visible
14 Sep ? 09:09:11 10° NE 09:12:34 21° E 09:13:01 20° E visible
14 Sep ? 10:44:21 10° N 10:48:47 63° WNW 10:49:51 47° SW visible
14 Sep ? 12:21:50 10° NNW 12:23:46 13° NW 12:25:41 10° WNW visible
15 Sep ? 09:21:32 10° NE 09:25:18 26° E 09:25:39 26° E visible
15 Sep ? 10:57:01 10° N 11:01:21 49° WNW 11:02:29 39° WSW visible
15 Sep ? 12:35:28 10° NW 12:36:10 10° NW 12:36:52 10° WNW visible
16 Sep ? 09:33:56 10° NNE 09:38:00 33° E 09:38:15 32° ESE visible
16 Sep ? 11:09:42 10° N 11:13:52 39° WNW 11:15:06 32° WSW visible
17 Sep ? 09:46:21 10° NNE 09:50:37 42° E 09:50:50 41° ESE visible
17 Sep ? 11:22:22 10° N 11:26:20 31° WNW 11:27:39 26° W visible
